[TLELIST] Archives

 

[TLELIST] Current TLEs

July 15th 2025 PST

HST 1 20580U 90037B 25196.17768479 .00003537 00000-0 12729-3 0 9998 2 20580 28.4670 215.1518 0002172 51.2943 308.7845 15.25560689737226 ISS (ZARYA) 1 25544U 98067A 25196.17429620 .00009301 00000-0 16747-3 0 9995 2 25544 51.6344 168.3411 0002700 13.1182 346.9877 15.50554616519506 CXO 1 25867U 99040B 25198.52758380 .00000642 00000-0 00000-0 0 9995 2 25867 50.1201 128.3795 8378680 309.8247 0.6254 0.37805643 16052 ...Continue Reading

[TLELIST] Current TLEs

July 14th 2025 PST

HST 1 20580U 90037B 25194.41138708 .00004125 00000-0 14986-3 0 9990 2 20580 28.4671 227.1293 0002111 33.5278 326.5450 15.25549441736690 ISS (ZARYA) 1 25544U 98067A 25195.20753373 .00009183 00000-0 16557-3 0 9990 2 25544 51.6342 173.1351 0002688 9.5212 350.5828 15.50534533519355 CXO 1 25867U 99040B 25195.88330759 .00000732 00000-0 00000+0 0 9996 2 25867 50.0377 128.5416 8379652 309.7681 0.6557 0.37800536 27209 ...Continue Reading

[TLELIST] Current TLEs

July 13th 2025 PST

HST 1 20580U 90037B 25193.43010431 .00003704 00000-0 13374-3 0 9995 2 20580 28.4672 233.7833 0002049 23.5803 336.4885 15.25541554736540 ISS (ZARYA) 1 25544U 98067A 25194.17630689 .00009469 00000-0 17059-3 0 9994 2 25544 51.6340 178.2487 0002656 5.9347 354.1673 15.50514308519191 CXO 1 25867U 99040B 25195.88330759 .00000732 00000-0 00000+0 0 9996 2 25867 50.0377 128.5416 8379652 309.7681 0.6557 0.37800536 27209 ...Continue Reading

[TLELIST] Current TLEs

July 12th 2025 PST

HST 1 20580U 90037B 25193.23384705 .00003829 00000-0 13854-3 0 9992 2 20580 28.4672 235.1140 0002025 21.6061 338.4619 15.25540654736778 ISS (ZARYA) 1 25544U 98067A 25193.16306042 .00007379 00000-0 13481-3 0 9998 2 25544 51.6351 183.2663 0002568 7.8923 92.7205 15.50494620519031 CXO 1 25867U 99040B 25195.88330759 .00000732 00000-0 00000+0 0 9996 2 25867 50.0377 128.5416 8379652 309.7681 0.6557 0.37800536 27209 ...Continue Reading

[TLELIST] Current TLEs

July 12th 2025 PST

HST 1 20580U 90037B 25193.23384705 .00003829 00000-0 13854-3 0 9992 2 20580 28.4672 235.1140 0002025 21.6061 338.4619 15.25540654736778 ISS (ZARYA) 1 25544U 98067A 25193.16306042 .00007379 00000-0 13481-3 0 9998 2 25544 51.6351 183.2663 0002568 7.8923 92.7205 15.50494620519031 CXO 1 25867U 99040B 25195.88330759 .00000732 00000-0 00000+0 0 9996 2 25867 50.0377 128.5416 8379652 309.7681 0.6557 0.37800536 27209 ...Continue Reading

[TLELIST] Current TLEs

July 12th 2025 PST

HST 1 20580U 90037B 25193.23384705 .00003829 00000-0 13854-3 0 9992 2 20580 28.4672 235.1140 0002025 21.6061 338.4619 15.25540654736778 ISS (ZARYA) 1 25544U 98067A 25193.16306042 .00007379 00000-0 13481-3 0 9998 2 25544 51.6351 183.2663 0002568 7.8923 92.7205 15.50494620519031 CXO 1 25867U 99040B 25195.88330759 .00000732 00000-0 00000+0 0 9996 2 25867 50.0377 128.5416 8379652 309.7681 0.6557 0.37800536 27209 ...Continue Reading

[TLELIST] Current TLEs

July 11th 2025 PST

HST 1 20580U 90037B 25192.18713936 .00003223 00000-0 11537-3 0 9991 2 20580 28.4674 242.2118 0001984 10.7544 349.3093 15.25532040736612 ISS (ZARYA) 1 25544U 98067A 25192.17826678 .00006493 00000-0 11964-3 0 9990 2 25544 51.6335 188.1561 0002807 356.4989 3.5980 15.50477807518885 CXO 1 25867U 99040B 25193.23688302 .00000730 00000-0 00000+0 0 9991 2 25867 49.9889 128.6492 8381586 309.7673 0.3172 0.37796383 27191 ...Continue Reading

[TLELIST] Current TLEs

July 10th 2025 PST

HST 1 20580U 90037B 25190.87874761 .00003534 00000-0 12732-3 0 9992 2 20580 28.4678 251.0835 0001924 356.0816 3.9763 15.25523964736412 ISS (ZARYA) 1 25544U 98067A 25191.22743991 .00007981 00000-0 14530-3 0 9996 2 25544 51.6351 192.8633 0002509 1.3942 87.9726 15.50465878518732 CXO 1 25867U 99040B 25193.23688302 .00000730 00000-0 00000+0 0 9991 2 25867 49.9889 128.6492 8381586 309.7673 0.3172 0.37796383 27191 ...Continue Reading

[TLELIST] Current TLEs

July 10th 2025 PST

HST 1 20580U 90037B 25190.87874761 .00003534 00000-0 12732-3 0 9992 2 20580 28.4678 251.0835 0001924 356.0816 3.9763 15.25523964736412 ISS (ZARYA) 1 25544U 98067A 25191.22743991 .00007981 00000-0 14530-3 0 9996 2 25544 51.6351 192.8633 0002509 1.3942 87.9726 15.50465878518732 CXO 1 25867U 99040B 25193.23688302 .00000730 00000-0 00000+0 0 9991 2 25867 49.9889 128.6492 8381586 309.7673 0.3172 0.37796383 27191 ...Continue Reading

[TLELIST] Current TLEs

July 9th 2025 PST

HST 1 20580U 90037B 25189.50492878 .00004213 00000-0 15337-3 0 9994 2 20580 28.4682 260.3985 0001848 339.8718 20.1803 15.25514129735947 ISS (ZARYA) 1 25544U 98067A 25190.02470325 .00008280 00000-0 15053-3 0 9995 2 25544 51.6358 198.8275 0002118 354.0350 217.6565 15.50447055518543 CXO 1 25867U 99040B 25190.59594014 .00000634 00000-0 00000-0 0 9997 2 25867 49.9420 128.7398 8385670 309.7762 0.7190 0.37799042 16035 ...Continue Reading
  • This mailing list is a public mailing list - anyone may join or leave, at any time.
  • This mailing list is announce-only.

International Space Station (ISS) / Hubble Space Telescope (HST) / Chandra X-Ray Observatory Orbital Data via EMAIL

Privacy Policy:

Private list